CDT,Max TemperatureF,Mean TemperatureF,Min TemperatureF,Max Dew PointF,MeanDew PointF,Min DewpointF,Max Humidity, Mean Humidity, Min Humidity, Max Sea Level PressureIn, Mean Sea Level PressureIn, Min Sea Level PressureIn, Max VisibilityMiles, Mean VisibilityMiles, Min VisibilityMiles, Max Wind SpeedMPH, Mean Wind SpeedMPH, Max Gust SpeedMPH,PrecipitationIn, CloudCover, Events, WindDirDegrees
2013-3-1,43,33,22,28,25,20,92,71,49,30.37,30.29,30.21,10,8,1,20,6,25,0.03,5,Snow,331
2013-3-2,62,41,20,36,30,17,92,64,36,30.33,30.18,30.02,10,9,5,18,5,21,0.00,3,,285
2013-3-3,53,41,28,37,31,25,100,77,54,29.99,29.73,29.57,10,10,10,15,5,18,0.00,0,,240
2013-3-4,46,34,22,30,19,7,100,69,37,30.21,29.90,29.59,10,10,9,32,21,46,0.00,3,,324
2013-3-5,41,28,15,12,11,10,80,55,30,30.42,30.37,30.23,10,10,10,25,13,32,0.00,0,,342
2013-3-6,42,28,13,24,18,10,88,64,40,30.39,30.23,30.03,10,10,10,23,11,31,0.00,0,,129
2013-3-7,54,38,21,27,24,20,92,64,35,30.11,30.05,30.00,10,10,7,14,6,18,0.00,0,,128
2013-3-8,52,37,22,45,31,21,88,68,48,30.10,29.93,29.70,10,8,5,20,8,25,0.00,2,,79
2013-3-9,50,40,29,48,34,25,100,88,75,29.97,29.70,29.54,10,4,0,36,20,45,0.05,8,Fog-Rain-Snow,27
2013-3-10,30,22,13,27,16,10,85,70,55,30.19,30.07,29.90,10,8,1,36,19,43,T,4,Rain-Snow,342
2013-3-11,54,33,12,27,20,9,88,61,33,30.12,30.02,29.89,10,10,10,23,10,38,T,2,Rain,308
2013-3-12,44,31,17,25,15,7,78,51,24,30.38,30.27,30.13,10,10,10,31,11,39,0.00,2,,314
2013-3-13,65,41,16,30,22,11,80,53,26,30.39,30.26,30.13,10,10,10,15,5,20,0.00,2,,179
2013-3-14,74,52,30,34,30,27,89,54,19,30.22,30.12,30.01,10,10,10,13,5,17,0.00,0,,298
2013-3-15,79,56,32,38,31,26,85,50,15,29.97,29.84,29.70,10,10,10,22,9,28,0.00,0,,311
2013-3-16,45,38,30,32,25,18,85,65,45,30.10,30.04,29.90,10,10,10,20,10,24,0.00,5,,54
2013-3-17,38,33,27,32,26,18,92,73,54,30.04,29.83,29.60,10,7,2,22,11,30,0.03,8,Rain,142
2013-3-18,48,34,20,27,18,9,96,61,25,30.07,29.96,29.84,10,10,10,28,12,38,0.00,3,,329
2013-3-19,51,36,21,27,18,7,72,48,23,30.39,30.14,30.00,10,10,6,17,11,33,T,6,Snow,296
2013-3-20,48,28,7,17,10,5,83,54,25,30.45,30.25,29.93,10,10,10,18,9,25,0.00,1,,180
2013-3-21,48,38,28,28,20,15,58,45,31,29.91,29.80,29.70,10,9,2,22,14,31,0.01,6,Snow,138
2013-3-22,46,38,30,29,27,24,92,69,45,30.01,29.87,29.79,10,9,2,20,9,24,T,6,Snow,334
2013-3-23,32,27,21,27,22,14,92,78,63,30.25,30.05,29.94,10,4,0,25,15,31,0.09,8,Fog-Snow,22
2013-3-24,34,21,8,17,11,5,91,65,39,30.32,30.25,30.14,10,10,10,29,13,36,0.00,3,,326
2013-3-25,35,23,11,11,9,7,84,60,35,30.43,30.38,30.31,10,10,10,23,11,29,0.00,1,,333
2013-3-26,49,28,7,22,13,4,88,55,21,30.40,30.25,30.12,10,10,10,23,8,29,0.00,0,,151
2013-3-27,60,40,19,27,23,19,92,58,23,30.20,30.13,30.08,10,10,8,10,4,16,0.00,2,,92
2013-3-28,66,46,26,32,28,23,85,56,26,30.20,30.13,30.04,10,10,9,21,7,26,0.00,1,,160
2013-3-29,71,51,31,46,37,26,89,61,32,30.15,30.04,29.93,10,10,2,22,9,26,0.28,5,Rain-Thunderstorm,147
2013-3-30,64,49,33,40,36,34,100,69,37,30.11,30.01,29.95,10,7,0,24,9,30,T,3,Fog,328
2013-3-31,71,50,28,36,30,22,92,57,22,30.17,30.04,29.85,10,10,10,32,12,41,0.00,1,,297